Zurück zum Katalog

SL-6 R/B(2)

AktivHEO
NORAD 9921·ROCKET BODY·🇷🇺 Russia

Gestartet Apr 11, 1977 von Plesetsk Cosmodrome

Loading…

Nächste Überflüge (nächste 24 Stunden)

TLE

AktuellSource: Space-Track

Epoche: Sep 14, 2026, 00:45 UTC

1 09921U 77027D   26257.03155955 -.00000505  00000-0  00000-0 0  9990
2 09921  72.1927 133.1733 5254694 138.8298   4.5863  1.98901306359062

Verfolge SL-6 R/B(2) in Echtzeit mit AllMySat

Download on the App Store